Time,TemperatureF,DewpointF,PressureIn,WindDirection,WindDirectionDegrees,WindSpeedMPH,WindSpeedGustMPH,Humidity,HourlyPrecipIn,Conditions,Clouds,dailyrainin,SoftwareType,DateUTC
2013-03-05 00:00:00,38.5,11.8,29.00,NE,45,0.0,0.0,33,0.00,CLR,SCT,0.00,WeatherDisplay:10.37,2013-03-05 05:00:00,
2013-03-05 00:05:00,38.1,11.5,29.00,NE,45,0.0,0.0,33,0.00,CLR,SCT,0.00,WeatherDisplay:10.37,2013-03-05 05:05:00,
2013-03-05 00:10:00,37.9,11.3,29.00,NE,45,0.0,0.0,33,0.00,CLR,SCT,0.00,WeatherDisplay:10.37,2013-03-05 05:10:00,
2013-03-05 00:15:00,37.6,11.7,29.00,NE,45,0.0,0.0,34,0.00,CLR,SCT,0.00,WeatherDisplay:10.37,2013-03-05 05:15:00,
2013-03-05 00:20:00,37.2,11.4,29.00,NE,45,0.0,0.0,34,0.00,CLR,SCT,0.00,WeatherDisplay:10.37,2013-03-05 05:20:00,
2013-03-05 00:25:00,37.0,11.2,29.00,NE,45,0.0,0.0,34,0.00,CLR,SCT,0.00,WeatherDisplay:10.37,2013-03-05 05:25:00,
2013-03-05 00:30:00,37.0,11.9,29.00,NE,45,0.0,0.0,35,0.00,CLR,SCT,0.00,WeatherDisplay:10.37,2013-03-05 05:30:00,
2013-03-05 00:35:00,36.9,11.7,29.00,NE,45,0.0,0.0,35,0.00,CLR,SCT,0.00,WeatherDisplay:10.37,2013-03-05 05:35:00,
2013-03-05 00:40:00,36.7,11.6,29.00,NE,45,0.0,0.0,35,0.00,CLR,SCT,0.00,WeatherDisplay:10.37,2013-03-05 05:40:00,
2013-03-05 00:45:00,36.5,12.0,29.00,NE,45,0.0,0.0,36,0.00,CLR,SCT,0.00,WeatherDisplay:10.37,2013-03-05 05:45:00,
2013-03-05 00:50:00,36.3,12.5,29.00,NE,45,0.0,0.0,37,0.00,CLR,SCT,0.00,WeatherDisplay:10.37,2013-03-05 05:50:00,
2013-03-05 00:55:00,36.1,11.7,29.00,NE,45,0.0,0.0,36,0.00,CLR,SCT,0.00,WeatherDisplay:10.37,2013-03-05 05:55:00,
2013-03-05 01:00:00,36.0,12.8,29.00,NE,45,0.0,0.0,38,0.00,CLR,SCT,0.00,WeatherDisplay:10.37,2013-03-05 06:00:00,
2013-03-05 01:05:00,35.6,13.0,29.00,NE,45,0.0,0.0,39,0.00,CLR,SCT,0.00,WeatherDisplay:10.37,2013-03-05 06:05:00,
2013-03-05 01:10:00,35.4,13.5,29.00,NE,45,0.0,0.0,40,0.00,CLR,SCT,0.00,WeatherDisplay:10.37,2013-03-05 06:10:00,
2013-03-05 01:15:00,35.4,13.5,29.00,NE,45,0.0,0.0,40,0.00,CLR,SCT,0.00,WeatherDisplay:10.37,2013-03-05 06:15:00,
2013-03-05 01:20:00,35.4,13.5,29.00,WSW,248,2.3,2.3,40,0.00,CLR,SCT,0.00,WeatherDisplay:10.37,2013-03-05 06:20:00,
2013-03-05 01:25:00,35.4,13.5,29.03,SW,225,0.0,0.0,40,0.00,CLR,SCT,0.00,WeatherDisplay:10.37,2013-03-05 06:25:00,
2013-03-05 01:30:00,35.2,13.9,29.03,SW,225,0.0,0.0,41,0.00,CLR,SCT,0.00,WeatherDisplay:10.37,2013-03-05 06:30:00,
2013-03-05 01:35:00,35.1,13.7,29.03,SW,225,0.0,0.0,41,0.00,CLR,SCT,0.00,WeatherDisplay:10.37,2013-03-05 06:35:00,
2013-03-05 01:40:00,34.9,13.5,29.03,SW,225,0.0,0.0,41,0.00,CLR,SCT,0.00,WeatherDisplay:10.37,2013-03-05 06:40:00,
2013-03-05 01:45:00,34.7,13.4,29.03,SW,225,0.0,0.0,41,0.00,CLR,SCT,0.00,WeatherDisplay:10.37,2013-03-05 06:45:00,
2013-03-05 01:50:00,34.7,13.4,29.03,SW,225,0.0,0.0,41,0.00,CLR,SCT,0.00,WeatherDisplay:10.37,2013-03-05 06:50:00,
2013-03-05 01:55:00,34.5,13.2,29.00,SW,225,0.0,0.0,41,0.00,CLR,SCT,0.00,WeatherDisplay:10.37,2013-03-05 06:55:00,
2013-03-05 02:00:00,34.3,13.6,29.00,SW,225,0.0,0.0,42,0.00,CLR,SCT,0.00,WeatherDisplay:10.37,2013-03-05 07:00:00,
2013-03-05 02:05:00,34.3,13.6,29.00,SW,225,0.0,0.0,42,0.00,CLR,SCT,0.00,WeatherDisplay:10.37,2013-03-05 07:05:00,
2013-03-05 02:10:00,34.2,13.4,29.00,SW,225,0.0,0.0,42,0.00,CLR,SCT,0.00,WeatherDisplay:10.37,2013-03-05 07:10:00,
2013-03-05 02:15:00,34.2,13.4,29.00,SW,225,0.0,0.0,42,0.00,CLR,SCT,0.00,WeatherDisplay:10.37,2013-03-05 07:15:00,
2013-03-05 02:20:00,34.0,13.3,29.00,SW,225,0.0,0.0,42,0.00,CLR,SCT,0.00,WeatherDisplay:10.37,2013-03-05 07:20:00,
2013-03-05 02:25:00,34.0,13.8,29.00,SW,225,0.0,0.0,43,0.00,CLR,SCT,0.00,WeatherDisplay:10.37,2013-03-05 07:25:00,
2013-03-05 02:30:00,34.0,13.8,29.00,SW,225,0.0,0.0,43,0.00,CLR,SCT,0.00,WeatherDisplay:10.37,2013-03-05 07:30:00,
2013-03-05 02:35:00,34.0,13.8,29.00,SW,225,0.0,0.0,43,0.00,CLR,SCT,0.00,WeatherDisplay:10.37,2013-03-05 07:35:00,
2013-03-05 02:40:00,34.0,13.8,29.00,SW,225,0.0,0.0,43,0.00,CLR,SCT,0.00,WeatherDisplay:10.37,2013-03-05 07:40:00,
2013-03-05 02:45:00,34.2,14.0,29.00,SW,225,0.0,0.0,43,0.00,CLR,SCT,0.00,WeatherDisplay:10.37,2013-03-05 07:45:00,
2013-03-05 02:50:00,34.3,14.1,29.00,SW,225,0.0,0.0,43,0.00,CLR,SCT,0.00,WeatherDisplay:10.37,2013-03-05 07:50:00,
2013-03-05 02:55:00,34.5,14.8,28.97,SW,225,0.0,0.0,44,0.00,CLR,SCT,0.00,WeatherDisplay:10.37,2013-03-05 07:55:00,
2013-03-05 03:00:00,34.5,14.8,28.97,SW,225,0.0,0.0,44,0.00,CLR,SCT,0.00,WeatherDisplay:10.37,2013-03-05 08:00:00,
2013-03-05 03:05:00,34.5,14.8,28.97,SW,225,0.0,0.0,44,0.00,CLR,SCT,0.00,WeatherDisplay:10.37,2013-03-05 08:05:00,
2013-03-05 03:10:00,34.7,15.0,28.97,SW,225,0.0,0.0,44,0.00,CLR,SCT,0.00,WeatherDisplay:10.37,2013-03-05 08:10:00,
2013-03-05 03:15:00,34.7,15.5,28.97,SW,225,0.0,0.0,45,0.00,CLR,SCT,0.00,WeatherDisplay:10.37,2013-03-05 08:15:00,
2013-03-05 03:20:00,34.9,15.7,28.97,SW,225,0.0,0.0,45,0.00,CLR,SCT,0.00,WeatherDisplay:10.37,2013-03-05 08:20:00,
2013-03-05 03:25:00,34.9,15.7,28.97,SW,225,0.0,0.0,45,0.00,CLR,SCT,0.00,WeatherDisplay:10.37,2013-03-05 08:25:00,
2013-03-05 03:30:00,35.1,15.8,28.97,SW,225,0.0,0.0,45,0.00,CLR,SCT,0.00,WeatherDisplay:10.37,2013-03-05 08:30:00,
2013-03-05 03:35:00,35.2,16.0,28.97,ESE,112,0.0,0.0,45,0.00,CLR,SCT,0.00,WeatherDisplay:10.37,2013-03-05 08:35:00,
2013-03-05 03:40:00,35.4,16.2,28.97,ESE,112,0.0,0.0,45,0.00,CLR,SCT,0.00,WeatherDisplay:10.37,2013-03-05 08:40:00,
2013-03-05 03:45:00,35.6,16.3,28.97,South,180,0.0,0.0,45,0.00,CLR,SCT,0.00,WeatherDisplay:10.37,2013-03-05 08:45:00,
2013-03-05 03:50:00,35.8,16.5,28.97,South,180,0.0,0.0,45,0.00,CLR,SCT,0.00,WeatherDisplay:10.37,2013-03-05 08:50:00,
2013-03-05 03:55:00,36.0,16.7,28.97,South,180,0.0,0.0,45,0.00,CLR,SCT,0.00,WeatherDisplay:10.37,2013-03-05 08:55:00,
2013-03-05 04:00:00,36.1,16.8,28.97,WSW,248,0.0,0.0,45,0.00,CLR,SCT,0.00,WeatherDisplay:10.37,2013-03-05 09:00:00,
2013-03-05 04:05:00,36.1,16.8,28.97,West,270,0.0,0.0,45,0.00,CLR,SCT,0.00,WeatherDisplay:10.37,2013-03-05 09:05:00,
2013-03-05 04:10:00,36.3,17.0,28.97,West,270,0.0,0.0,45,0.00,CLR,SCT,0.00,WeatherDisplay:10.37,2013-03-05 09:10:00,
2013-03-05 04:15:00,36.7,17.3,28.97,West,270,0.0,0.0,45,0.00,CLR,SCT,0.00,WeatherDisplay:10.37,2013-03-05 09:15:00,
2013-03-05 04:20:00,36.9,17.5,28.97,WSW,248,0.0,0.0,45,0.00,CLR,SCT,0.00,WeatherDisplay:10.37,2013-03-05 09:20:00,
2013-03-05 04:25:00,37.2,17.8,28.97,WSW,248,0.0,0.0,45,0.00,CLR,SCT,0.00,WeatherDisplay:10.37,2013-03-05 09:25:00,
2013-03-05 04:30:00,37.4,18.0,28.97,WSW,248,0.0,0.0,45,0.00,CLR,SCT,0.00,WeatherDisplay:10.37,2013-03-05 09:30:00,
2013-03-05 04:35:00,37.6,17.6,28.97,West,270,0.0,0.0,44,0.00,CLR,SCT,0.00,WeatherDisplay:10.37,2013-03-05 09:35:00,
2013-03-05 04:40:00,37.8,17.8,28.97,West,270,0.0,0.0,44,0.00,CLR,SCT,0.00,WeatherDisplay:10.37,2013-03-05 09:40:00,
2013-03-05 04:45:00,37.9,17.9,28.97,West,270,0.0,0.0,44,0.00,CLR,SCT,0.00,WeatherDisplay:10.37,2013-03-05 09:45:00,
2013-03-05 04:50:00,38.1,18.1,28.97,ESE,112,0.0,0.0,44,0.00,CLR,SCT,0.00,WeatherDisplay:10.37,2013-03-05 09:50:00,
2013-03-05 04:55:00,38.3,18.3,28.97,East,90,0.0,0.0,44,0.00,CLR,SCT,0.00,WeatherDisplay:10.37,2013-03-05 09:55:00,
2013-03-05 05:00:00,38.5,18.4,28.97,ESE,112,0.0,0.0,44,0.00,CLR,SCT,0.00,WeatherDisplay:10.37,2013-03-05 10:00:00,
2013-03-05 05:05:00,38.7,18.6,28.97,ENE,68,0.0,0.0,44,0.00,CLR,SCT,0.00,WeatherDisplay:10.37,2013-03-05 10:05:00,
2013-03-05 05:10:00,38.8,18.8,28.97,ENE,68,0.0,0.0,44,0.00,CLR,SCT,0.00,WeatherDisplay:10.37,2013-03-05 10:10:00,
2013-03-05 05:15:00,39.0,18.9,28.97,West,270,2.3,2.3,44,0.00,CLR,SCT,0.00,WeatherDisplay:10.37,2013-03-05 10:15:00,
2013-03-05 05:20:00,39.0,18.9,28.97,West,270,0.0,0.0,44,0.00,CLR,SCT,0.00,WeatherDisplay:10.37,2013-03-05 10:20:00,
2013-03-05 05:25:00,39.0,18.9,28.97,SW,225,0.0,0.0,44,0.00,CLR,SCT,0.00,WeatherDisplay:10.37,2013-03-05 10:25:00,
2013-03-05 05:30:00,39.0,19.4,28.97,West,270,1.2,1.2,45,0.00,CLR,SCT,0.00,WeatherDisplay:10.37,2013-03-05 10:30:00,
2013-03-05 05:35:00,39.0,19.4,28.97,West,270,0.0,0.0,45,0.00,CLR,SCT,0.00,WeatherDisplay:10.37,2013-03-05 10:35:00,
2013-03-05 05:40:00,39.0,20.0,28.94,West,270,0.0,0.0,46,0.00,CLR,SCT,0.00,WeatherDisplay:10.37,2013-03-05 10:40:00,
2013-03-05 05:45:00,39.0,20.0,28.94,ESE,112,0.0,0.0,46,0.00,CLR,SCT,0.00,WeatherDisplay:10.37,2013-03-05 10:45:00,
2013-03-05 05:50:00,39.0,20.5,28.94,ESE,112,0.0,0.0,47,0.00,CLR,SCT,0.00,WeatherDisplay:10.37,2013-03-05 10:50:00,
2013-03-05 05:55:00,39.0,21.5,28.97,ESE,112,0.0,0.0,49,0.00,CLR,SCT,0.00,WeatherDisplay:10.37,2013-03-05 10:55:00,
2013-03-05 06:00:00,38.8,21.8,28.97,ESE,112,0.0,0.0,50,0.00,CLR,SCT,0.00,WeatherDisplay:10.37,2013-03-05 11:00:00,
2013-03-05 06:05:00,38.8,21.8,28.97,ESE,112,0.0,0.0,50,0.00,CLR,SCT,0.00,WeatherDisplay:10.37,2013-03-05 11:05:00,
2013-03-05 06:10:00,39.0,22.4,28.97,ESE,112,0.0,0.0,51,0.00,CLR,SCT,0.00,WeatherDisplay:10.37,2013-03-05 11:10:00,
2013-03-05 06:15:00,39.0,22.4,28.97,South,180,0.0,0.0,51,0.00,CLR,SCT,0.00,WeatherDisplay:10.37,2013-03-05 11:15:00,
2013-03-05 06:20:00,39.0,22.4,28.97,SSW,202,0.0,0.0,51,0.00,CLR,SCT,0.00,WeatherDisplay:10.37,2013-03-05 11:20:00,
2013-03-05 06:25:00,39.0,22.4,28.94,SSW,202,0.0,0.0,51,0.00,CLR,SCT,0.00,WeatherDisplay:10.37,2013-03-05 11:25:00,
2013-03-05 06:30:00,39.0,22.4,28.94,ESE,112,0.0,0.0,51,0.00,CLR,SCT,0.00,WeatherDisplay:10.37,2013-03-05 11:30:00,
2013-03-05 06:35:00,39.0,22.4,28.94,ESE,112,0.0,0.0,51,0.00,CLR,SCT,0.00,WeatherDisplay:10.37,2013-03-05 11:35:00,
2013-03-05 06:40:00,39.0,22.4,28.97,ESE,112,0.0,0.0,51,0.00,CLR,SCT,0.00,WeatherDisplay:10.37,2013-03-05 11:40:00,
2013-03-05 06:45:00,39.0,22.4,28.97,East,90,0.0,0.0,51,0.00,CLR,SCT,0.00,WeatherDisplay:10.37,2013-03-05 11:45:00,
2013-03-05 06:50:00,39.0,22.4,28.97,North,0,0.0,0.0,51,0.00,CLR,SCT,0.00,WeatherDisplay:10.37,2013-03-05 11:50:00,
2013-03-05 06:55:00,39.0,22.4,28.97,NNW,338,0.0,0.0,51,0.00,CLR,SCT,0.00,WeatherDisplay:10.37,2013-03-05 11:55:00,
2013-03-05 07:00:00,39.0,22.4,28.97,NNW,338,0.0,0.0,51,0.00,CLR,SCT,0.00,WeatherDisplay:10.37,2013-03-05 12:00:00,
2013-03-05 07:05:00,39.0,22.4,28.97,NNW,338,0.0,0.0,51,0.00,CLR,SCT,0.00,WeatherDisplay:10.37,2013-03-05 12:05:00,
2013-03-05 07:10:00,39.0,22.4,28.97,North,0,0.0,0.0,51,0.00,CLR,SCT,0.00,WeatherDisplay:10.37,2013-03-05 12:10:00,
2013-03-05 07:15:00,39.7,26.2,28.97,ENE,68,0.0,0.0,58,0.00,CLR,SCT,0.00,WeatherDisplay:10.37,2013-03-05 12:15:00,
2013-03-05 07:20:00,39.9,26.3,28.97,East,90,0.0,0.0,58,0.00,CLR,SCT,0.00,WeatherDisplay:10.37,2013-03-05 12:20:00,
2013-03-05 07:25:00,40.3,27.1,28.97,East,90,0.0,0.0,59,0.00,CLR,SCT,0.00,WeatherDisplay:10.37,2013-03-05 12:25:00,
2013-03-05 07:30:00,40.3,27.1,28.97,East,90,0.0,0.0,59,0.00,CLR,SCT,0.00,WeatherDisplay:10.37,2013-03-05 12:30:00,
2013-03-05 07:35:00,40.3,27.1,28.97,East,90,0.0,0.0,59,0.00,CLR,SCT,0.00,WeatherDisplay:10.37,2013-03-05 12:35:00,
2013-03-05 07:40:00,40.3,27.1,28.97,East,90,0.0,0.0,59,0.00,CLR,SCT,0.00,WeatherDisplay:10.37,2013-03-05 12:40:00,
2013-03-05 07:45:00,40.3,27.1,28.97,East,90,0.0,0.0,59,0.00,CLR,SCT,0.00,WeatherDisplay:10.37,2013-03-05 12:45:00,
2013-03-05 07:50:00,40.3,27.1,28.97,East,90,0.0,0.0,59,0.00,CLR,SCT,0.00,WeatherDisplay:10.37,2013-03-05 12:50:00,
2013-03-05 07:55:00,40.3,27.1,28.97,East,90,0.0,0.0,59,0.00,CLR,SCT,0.00,WeatherDisplay:10.37,2013-03-05 12:55:00,
2013-03-05 08:00:00,40.3,27.1,28.97,East,90,0.0,0.0,59,0.00,CLR,SCT,0.00,WeatherDisplay:10.37,2013-03-05 13:00:00,
2013-03-05 08:05:00,40.3,27.1,28.97,East,90,0.0,0.0,59,0.00,CLR,SCT,0.00,WeatherDisplay:10.37,2013-03-05 13:05:00,
2013-03-05 08:10:00,40.3,27.1,28.97,NNW,338,0.0,0.0,59,0.00,CLR,SCT,0.00,WeatherDisplay:10.37,2013-03-05 13:10:00,
2013-03-05 08:15:00,40.3,27.1,28.97,NNW,338,0.0,0.0,59,0.00,CLR,SCT,0.00,WeatherDisplay:10.37,2013-03-05 13:15:00,
2013-03-05 08:20:00,40.3,27.1,28.97,NNW,338,0.0,0.0,59,0.00,CLR,SCT,0.00,WeatherDisplay:10.37,2013-03-05 13:20:00,
2013-03-05 08:25:00,40.3,27.1,28.97,NNW,338,0.0,0.0,59,0.00,CLR,SCT,0.00,WeatherDisplay:10.37,2013-03-05 13:25:00,
2013-03-05 08:30:00,40.3,27.1,28.97,NNW,338,0.0,0.0,59,0.00,CLR,SCT,0.00,WeatherDisplay:10.37,2013-03-05 13:30:00,
2013-03-05 08:35:00,40.3,27.1,28.97,NNE,22,0.0,0.0,59,0.00,CLR,SCT,0.00,WeatherDisplay:10.37,2013-03-05 13:35:00,
2013-03-05 08:40:00,40.3,27.1,28.97,NNE,22,0.0,0.0,59,0.00,CLR,SCT,0.00,WeatherDisplay:10.37,2013-03-05 13:40:00,
2013-03-05 08:45:00,40.3,27.1,28.97,NNE,22,0.0,0.0,59,0.00,CLR,SCT,0.00,WeatherDisplay:10.37,2013-03-05 13:45:00,
2013-03-05 08:50:00,40.3,27.1,28.97,NNE,22,0.0,0.0,59,0.00,CLR,SCT,0.00,WeatherDisplay:10.37,2013-03-05 13:50:00,
2013-03-05 08:55:00,40.3,27.1,28.97,NNE,22,0.0,0.0,59,0.00,CLR,SCT,0.00,WeatherDisplay:10.37,2013-03-05 13:55:00,
2013-03-05 09:00:00,40.3,27.1,28.97,NNE,22,0.0,0.0,59,0.00,CLR,SCT,0.00,WeatherDisplay:10.37,2013-03-05 14:00:00,
2013-03-05 09:05:00,40.3,27.1,28.97,NNE,22,0.0,0.0,59,0.00,CLR,SCT,0.00,WeatherDisplay:10.37,2013-03-05 14:05:00,
2013-03-05 09:10:00,40.3,27.1,28.94,NE,45,0.0,0.0,59,0.00,CLR,SCT,0.00,WeatherDisplay:10.37,2013-03-05 14:10:00,
2013-03-05 09:15:00,40.3,27.1,28.94,NE,45,0.0,0.0,59,0.00,CLR,SCT,0.00,WeatherDisplay:10.37,2013-03-05 14:15:00,
2013-03-05 09:20:00,40.3,27.1,28.94,NE,45,0.0,0.0,59,0.00,CLR,SCT,0.00,WeatherDisplay:10.37,2013-03-05 14:20:00,
2013-03-05 09:25:00,40.3,27.1,28.97,NE,45,0.0,0.0,59,0.00,CLR,SCT,0.00,WeatherDisplay:10.37,2013-03-05 14:25:00,
2013-03-05 09:30:00,40.3,27.1,28.97,NE,45,0.0,0.0,59,0.00,CLR,SCT,0.00,WeatherDisplay:10.37,2013-03-05 14:30:00,
2013-03-05 09:35:00,40.3,27.1,28.97,NE,45,0.0,0.0,59,0.00,CLR,SCT,0.00,WeatherDisplay:10.37,2013-03-05 14:35:00,
2013-03-05 09:40:00,40.3,27.1,28.94,North,0,0.0,0.0,59,0.00,CLR,SCT,0.00,WeatherDisplay:10.37,2013-03-05 14:40:00,
2013-03-05 09:45:00,40.3,27.1,28.94,North,0,0.0,0.0,59,0.00,CLR,SCT,0.00,WeatherDisplay:10.37,2013-03-05 14:45:00,
2013-03-05 09:50:00,40.3,27.1,28.94,North,0,0.0,0.0,59,0.00,CLR,SCT,0.00,WeatherDisplay:10.37,2013-03-05 14:50:00,
2013-03-05 09:55:00,40.3,27.1,28.94,North,0,0.0,0.0,59,0.00,CLR,SCT,0.00,WeatherDisplay:10.37,2013-03-05 14:55:00,
2013-03-05 10:00:00,40.3,27.1,28.94,North,0,0.0,0.0,59,0.00,CLR,SCT,0.00,WeatherDisplay:10.37,2013-03-05 15:00:00,
2013-03-05 10:05:00,40.3,27.1,28.94,North,0,0.0,0.0,59,0.00,CLR,SCT,0.00,WeatherDisplay:10.37,2013-03-05 15:05:00,
2013-03-05 10:10:00,40.3,27.1,28.91,North,0,0.0,0.0,59,0.00,CLR,SCT,0.00,WeatherDisplay:10.37,2013-03-05 15:10:00,
2013-03-05 10:15:00,40.3,27.1,28.91,North,0,0.0,0.0,59,0.00,CLR,SCT,0.00,WeatherDisplay:10.37,2013-03-05 15:15:00,
2013-03-05 10:20:00,40.3,27.1,28.91,North,0,0.0,0.0,59,0.00,CLR,SCT,0.00,WeatherDisplay:10.37,2013-03-05 15:20:00,
2013-03-05 10:25:00,40.3,27.1,28.88,North,0,0.0,0.0,59,0.00,CLR,SCT,0.00,WeatherDisplay:10.37,2013-03-05 15:25:00,
2013-03-05 10:30:00,40.3,27.1,28.88,North,0,0.0,0.0,59,0.00,CLR,SCT,0.00,WeatherDisplay:10.37,2013-03-05 15:30:00,
2013-03-05 10:35:00,48.7,33.3,28.88,North,0,0.0,0.0,55,0.00,CLR,SCT,0.00,WeatherDisplay:10.37,2013-03-05 15:35:00,
2013-03-05 10:40:00,48.7,33.3,28.88,North,0,2.3,2.3,55,0.00,CLR,SCT,0.00,WeatherDisplay:10.37,2013-03-05 15:40:00,
2013-03-05 10:45:00,50.5,33.6,28.88,NNW,338,0.0,0.0,52,0.00,CLR,SCT,0.00,WeatherDisplay:10.37,2013-03-05 15:45:00,
2013-03-05 10:50:00,50.5,32.6,28.88,North,0,1.2,1.2,50,0.00,CLR,SCT,0.00,WeatherDisplay:10.37,2013-03-05 15:50:00,
2013-03-05 10:55:00,50.4,31.9,28.88,NNW,338,1.6,1.6,49,0.00,CLR,SCT,0.00,WeatherDisplay:10.37,2013-03-05 15:55:00,
2013-03-05 11:00:00,50.4,31.4,28.88,WNW,292,1.2,1.2,48,0.00,CLR,SCT,0.00,WeatherDisplay:10.37,2013-03-05 16:00:00,
2013-03-05 11:05:00,50.5,31.6,28.88,West,270,1.2,0.0,48,0.00,CLR,SCT,0.00,WeatherDisplay:10.37,2013-03-05 16:05:00,
2013-03-05 11:10:00,50.7,31.2,28.91,West,270,0.0,0.0,47,0.00,CLR,SCT,0.00,WeatherDisplay:10.37,2013-03-05 16:10:00,
2013-03-05 11:15:00,51.6,32.0,28.91,WSW,248,1.2,0.0,47,0.00,CLR,SCT,0.00,WeatherDisplay:10.37,2013-03-05 16:15:00,
2013-03-05 11:20:00,53.8,33.5,28.91,NE,45,0.0,0.0,46,0.00,CLR,SCT,0.00,WeatherDisplay:10.37,2013-03-05 16:20:00,
2013-03-05 11:25:00,54.9,33.9,28.91,NNE,22,2.3,2.3,45,0.00,CLR,SCT,0.00,WeatherDisplay:10.37,2013-03-05 16:25:00,
2013-03-05 11:30:00,57.6,33.4,28.91,NE,45,1.2,1.2,40,0.00,CLR,SCT,0.00,WeatherDisplay:10.37,2013-03-05 16:30:00,
2013-03-05 11:35:00,58.3,32.1,28.91,West,270,2.3,2.3,37,0.00,CLR,SCT,0.00,WeatherDisplay:10.37,2013-03-05 16:35:00,
2013-03-05 11:40:00,58.8,32.6,28.88,WNW,292,2.3,2.3,37,0.00,CLR,SCT,0.00,WeatherDisplay:10.37,2013-03-05 16:40:00,
2013-03-05 11:45:00,60.1,32.3,28.88,WNW,292,2.3,2.3,35,0.00,CLR,SCT,0.00,WeatherDisplay:10.37,2013-03-05 16:45:00,
2013-03-05 11:50:00,60.1,30.9,28.88,West,270,2.3,2.3,33,0.00,CLR,SCT,0.00,WeatherDisplay:10.37,2013-03-05 16:50:00,
2013-03-05 11:55:00,61.2,32.5,28.88,WNW,292,1.2,0.0,34,0.00,CLR,SCT,0.00,WeatherDisplay:10.37,2013-03-05 16:55:00,
2013-03-05 12:00:00,60.4,30.4,28.88,WNW,292,2.3,2.3,32,0.00,CLR,SCT,0.00,WeatherDisplay:10.37,2013-03-05 17:00:00,
2013-03-05 12:05:00,59.7,29.8,28.88,NW,315,1.6,0.0,32,0.00,CLR,SCT,0.00,WeatherDisplay:10.37,2013-03-05 17:05:00,
2013-03-05 12:10:00,60.1,30.1,28.88,NW,315,1.2,1.2,32,0.00,CLR,SCT,0.00,WeatherDisplay:10.37,2013-03-05 17:10:00,
2013-03-05 12:15:00,61.7,31.5,28.88,SSW,202,2.3,2.3,32,0.00,CLR,SCT,0.00,WeatherDisplay:10.37,2013-03-05 17:15:00,
2013-03-05 12:20:00,62.2,31.2,28.88,South,180,3.5,3.5,31,0.00,CLR,SCT,0.00,WeatherDisplay:10.37,2013-03-05 17:20:00,
2013-03-05 12:25:00,62.4,30.5,28.85,South,180,2.0,0.0,30,0.00,CLR,SCT,0.00,WeatherDisplay:10.37,2013-03-05 17:25:00,
2013-03-05 12:30:00,63.1,31.2,28.85,WNW,292,3.5,3.5,30,0.00,CLR,SCT,0.00,WeatherDisplay:10.37,2013-03-05 17:30:00,
2013-03-05 12:35:00,63.9,31.0,28.85,West,270,2.4,2.4,29,0.00,CLR,SCT,0.00,WeatherDisplay:10.37,2013-03-05 17:35:00,
2013-03-05 12:40:00,63.7,29.9,28.85,WSW,248,2.6,2.6,28,0.00,CLR,SCT,0.00,WeatherDisplay:10.37,2013-03-05 17:40:00,
2013-03-05 12:45:00,64.4,29.7,28.85,South,180,2.3,2.3,27,0.00,CLR,SCT,0.00,WeatherDisplay:10.37,2013-03-05 17:45:00,
2013-03-05 12:50:00,64.6,29.8,28.85,NW,315,3.5,3.5,27,0.00,CLR,SCT,0.00,WeatherDisplay:10.37,2013-03-05 17:50:00,
2013-03-05 12:55:00,64.8,30.0,28.82,West,270,2.4,2.4,27,0.00,CLR,SCT,0.00,WeatherDisplay:10.37,2013-03-05 17:55:00,
2013-03-05 13:00:00,64.9,29.2,28.82,West,270,3.5,3.5,26,0.00,CLR,SCT,0.00,WeatherDisplay:10.37,2013-03-05 18:00:00,
2013-03-05 13:05:00,64.8,29.0,28.82,West,270,2.4,2.4,26,0.00,CLR,SCT,0.00,WeatherDisplay:10.37,2013-03-05 18:05:00,
2013-03-05 13:10:00,64.2,29.5,28.82,SW,225,2.3,2.3,27,0.00,CLR,SCT,0.00,WeatherDisplay:10.37,2013-03-05 18:10:00,
2013-03-05 13:15:00,64.8,29.0,28.82,West,270,2.3,2.3,26,0.00,CLR,SCT,0.00,WeatherDisplay:10.37,2013-03-05 18:15:00,
2013-03-05 13:20:00,64.0,29.4,28.82,WSW,248,2.3,2.3,27,0.00,CLR,SCT,0.00,WeatherDisplay:10.37,2013-03-05 18:20:00,
2013-03-05 13:25:00,63.3,28.7,28.79,West,270,2.4,2.4,27,0.00,CLR,SCT,0.00,WeatherDisplay:10.37,2013-03-05 18:25:00,
2013-03-05 13:30:00,63.3,28.7,28.79,West,270,4.6,4.6,27,0.00,CLR,SCT,0.00,WeatherDisplay:10.37,2013-03-05 18:30:00,
2013-03-05 13:35:00,61.9,27.5,28.79,NNW,338,2.3,2.3,27,0.00,CLR,SCT,0.00,WeatherDisplay:10.37,2013-03-05 18:35:00,
2013-03-05 13:40:00,60.6,27.3,28.79,NNW,338,2.6,2.6,28,0.00,CLR,SCT,0.00,WeatherDisplay:10.37,2013-03-05 18:40:00,
2013-03-05 13:45:00,59.0,25.9,28.79,NNW,338,3.5,3.5,28,0.00,CLR,SCT,0.00,WeatherDisplay:10.37,2013-03-05 18:45:00,
2013-03-05 13:50:00,59.0,25.9,28.79,NNW,338,4.6,4.6,28,0.00,CLR,SCT,0.00,WeatherDisplay:10.37,2013-03-05 18:50:00,
2013-03-05 13:55:00,57.6,26.3,28.79,WSW,248,2.3,2.4,30,0.00,CLR,SCT,0.00,WeatherDisplay:10.37,2013-03-05 18:55:00,
2013-03-05 14:00:00,57.6,26.3,28.79,West,270,2.3,2.6,30,0.00,CLR,SCT,0.00,WeatherDisplay:10.37,2013-03-05 19:00:00,
2013-03-05 14:05:00,57.6,26.3,28.79,NW,315,2.3,2.3,30,0.00,CLR,SCT,0.00,WeatherDisplay:10.37,2013-03-05 19:05:00,
2013-03-05 14:10:00,57.6,26.3,28.79,NNW,338,2.3,2.3,30,0.00,CLR,SCT,0.00,WeatherDisplay:10.37,2013-03-05 19:10:00,
2013-03-05 14:15:00,56.3,28.3,28.79,West,270,2.3,2.3,34,0.00,CLR,SCT,0.00,WeatherDisplay:10.37,2013-03-05 19:15:00,
2013-03-05 14:20:00,56.1,28.8,28.79,West,270,0.0,0.0,35,0.00,CLR,SCT,0.00,WeatherDisplay:10.37,2013-03-05 19:20:00,
2013-03-05 14:25:00,56.1,28.8,28.76,NW,315,2.3,2.3,35,0.00,CLR,SCT,0.00,WeatherDisplay:10.37,2013-03-05 19:25:00,
2013-03-05 14:30:00,56.3,29.0,28.76,NNW,338,2.3,2.3,35,0.00,CLR,SCT,0.00,WeatherDisplay:10.37,2013-03-05 19:30:00,
2013-03-05 14:35:00,56.3,29.0,28.76,North,0,2.3,2.3,35,0.00,CLR,SCT,0.00,WeatherDisplay:10.37,2013-03-05 19:35:00,
2013-03-05 14:40:00,56.5,29.1,28.73,North,0,2.6,2.6,35,0.00,CLR,SCT,0.00,WeatherDisplay:10.37,2013-03-05 19:40:00,
2013-03-05 14:45:00,56.5,29.1,28.73,West,270,2.3,2.3,35,0.00,CLR,SCT,0.00,WeatherDisplay:10.37,2013-03-05 19:45:00,
2013-03-05 14:50:00,56.3,29.0,28.73,NW,315,1.2,0.0,35,0.00,CLR,SCT,0.00,WeatherDisplay:10.37,2013-03-05 19:50:00,
2013-03-05 14:55:00,56.3,29.0,28.73,North,0,1.2,1.2,35,0.00,CLR,SCT,0.00,WeatherDisplay:10.37,2013-03-05 19:55:00,
2013-03-05 15:00:00,56.3,29.0,28.73,ENE,68,2.3,2.3,35,0.00,CLR,SCT,0.00,WeatherDisplay:10.37,2013-03-05 20:00:00,
2013-03-05 15:05:00,56.5,29.1,28.73,WNW,292,2.3,2.3,35,0.00,CLR,SCT,0.00,WeatherDisplay:10.37,2013-03-05 20:05:00,
2013-03-05 15:10:00,56.7,29.3,28.76,West,270,2.3,2.3,35,0.00,CLR,SCT,0.00,WeatherDisplay:10.37,2013-03-05 20:10:00,
2013-03-05 15:15:00,56.7,29.3,28.76,NW,315,2.3,2.3,35,0.00,CLR,SCT,0.00,WeatherDisplay:10.37,2013-03-05 20:15:00,
2013-03-05 15:20:00,57.6,30.1,28.76,NE,45,2.3,2.3,35,0.00,CLR,SCT,0.00,WeatherDisplay:10.37,2013-03-05 20:20:00,
2013-03-05 15:25:00,57.7,30.2,28.70,North,0,2.6,2.6,35,0.00,CLR,SCT,0.00,WeatherDisplay:10.37,2013-03-05 20:25:00,
2013-03-05 15:30:00,57.7,30.2,28.70,WNW,292,2.3,2.3,35,0.00,CLR,SCT,0.00,WeatherDisplay:10.37,2013-03-05 20:30:00,
2013-03-05 15:35:00,58.6,30.3,28.70,North,0,1.2,0.0,34,0.00,CLR,SCT,0.00,WeatherDisplay:10.37,2013-03-05 20:35:00,
2013-03-05 15:40:00,59.7,31.3,28.67,NNE,22,1.4,1.4,34,0.00,CLR,SCT,0.00,WeatherDisplay:10.37,2013-03-05 20:40:00,
2013-03-05 15:45:00,59.9,31.4,28.67,WNW,292,1.6,1.6,34,0.00,CLR,SCT,0.00,WeatherDisplay:10.37,2013-03-05 20:45:00,
2013-03-05 15:50:00,59.9,31.4,28.67,North,0,1.6,1.6,34,0.00,CLR,SCT,0.00,WeatherDisplay:10.37,2013-03-05 20:50:00,
2013-03-05 15:55:00,59.7,29.8,28.67,NNE,22,2.3,2.3,32,0.00,CLR,SCT,0.00,WeatherDisplay:10.37,2013-03-05 20:55:00,
2013-03-05 16:00:00,59.7,30.5,28.67,NW,315,2.3,2.3,33,0.00,CLR,SCT,0.00,WeatherDisplay:10.37,2013-03-05 21:00:00,
2013-03-05 16:05:00,59.5,29.6,28.67,NNW,338,2.3,2.3,32,0.00,CLR,SCT,0.00,WeatherDisplay:10.37,2013-03-05 21:05:00,
2013-03-05 16:10:00,58.8,29.7,28.67,NNW,338,0.0,0.0,33,0.00,CLR,SCT,0.00,WeatherDisplay:10.37,2013-03-05 21:10:00,
2013-03-05 16:15:00,58.5,29.4,28.67,NNW,338,0.0,0.0,33,0.00,CLR,SCT,0.00,WeatherDisplay:10.37,2013-03-05 21:15:00,
2013-03-05 16:20:00,58.1,29.8,28.67,WSW,248,3.5,3.5,34,0.00,CLR,SCT,0.00,WeatherDisplay:10.37,2013-03-05 21:20:00,
2013-03-05 16:25:00,57.7,30.2,28.67,ENE,68,2.3,2.3,35,0.00,CLR,SCT,0.00,WeatherDisplay:10.37,2013-03-05 21:25:00,
2013-03-05 16:30:00,57.4,29.9,28.67,NW,315,1.2,1.2,35,0.00,CLR,SCT,0.00,WeatherDisplay:10.37,2013-03-05 21:30:00,
2013-03-05 16:35:00,57.4,29.9,28.67,NW,315,0.0,0.0,35,0.00,CLR,SCT,0.00,WeatherDisplay:10.37,2013-03-05 21:35:00,
2013-03-05 16:40:00,57.4,29.9,28.64,WSW,248,1.2,1.2,35,0.00,CLR,SCT,0.00,WeatherDisplay:10.37,2013-03-05 21:40:00,
2013-03-05 16:45:00,57.4,29.9,28.64,East,90,2.3,2.3,35,0.00,CLR,SCT,0.00,WeatherDisplay:10.37,2013-03-05 21:45:00,
2013-03-05 16:50:00,57.4,29.9,28.64,ENE,68,1.2,0.0,35,0.00,CLR,SCT,0.00,WeatherDisplay:10.37,2013-03-05 21:50:00,
2013-03-05 16:55:00,57.4,29.9,28.61,NNE,22,2.3,2.3,35,0.00,CLR,SCT,0.00,WeatherDisplay:10.37,2013-03-05 21:55:00,
2013-03-05 17:00:00,57.4,29.9,28.61,SE,135,1.2,0.0,35,0.00,CLR,SCT,0.00,WeatherDisplay:10.37,2013-03-05 22:00:00,
2013-03-05 17:05:00,57.4,29.9,28.61,SSW,202,0.0,0.0,35,0.00,CLR,SCT,0.00,WeatherDisplay:10.37,2013-03-05 22:05:00,
2013-03-05 17:10:00,57.4,29.9,28.61,South,180,2.3,2.3,35,0.00,CLR,SCT,0.00,WeatherDisplay:10.37,2013-03-05 22:10:00,
2013-03-05 17:15:00,57.4,29.9,28.61,South,180,0.0,0.0,35,0.00,CLR,SCT,0.00,WeatherDisplay:10.37,2013-03-05 22:15:00,
2013-03-05 17:20:00,57.4,29.9,28.61,SSW,202,0.0,0.0,35,0.00,CLR,SCT,0.00,WeatherDisplay:10.37,2013-03-05 22:20:00,
2013-03-05 17:25:00,57.4,29.9,28.61,SSW,202,0.0,0.0,35,0.04,RA,SCT,0.04,WeatherDisplay:10.37,2013-03-05 22:25:00,
2013-03-05 17:30:00,57.4,29.9,28.61,SE,135,0.0,0.0,35,0.04,RA,SCT,0.04,WeatherDisplay:10.37,2013-03-05 22:30:00,
2013-03-05 17:35:00,57.4,29.9,28.61,ESE,112,0.0,0.0,35,0.04,CLR,SCT,0.04,WeatherDisplay:10.37,2013-03-05 22:35:00,
2013-03-05 17:40:00,53.1,36.8,28.61,ESE,112,1.2,1.2,54,0.04,CLR,SCT,0.04,WeatherDisplay:10.37,2013-03-05 22:40:00,
2013-03-05 17:45:00,53.2,38.4,28.61,South,180,2.3,0.0,57,0.09,RA,SCT,0.09,WeatherDisplay:10.37,2013-03-05 22:45:00,
2013-03-05 17:50:00,54.0,40.4,28.61,ESE,112,2.3,2.3,60,0.09,RA,SCT,0.09,WeatherDisplay:10.37,2013-03-05 22:50:00,
2013-03-05 17:55:00,54.7,43.9,28.61,ESE,112,3.5,3.5,67,0.09,CLR,SCT,0.09,WeatherDisplay:10.37,2013-03-05 22:55:00,
2013-03-05 18:00:00,55.4,46.2,28.61,East,90,2.3,2.3,71,0.09,CLR,SCT,0.09,WeatherDisplay:10.37,2013-03-05 23:00:00,
2013-03-05 18:05:00,55.6,46.7,28.61,South,180,2.3,0.0,72,0.09,RA,SCT,0.09,WeatherDisplay:10.37,2013-03-05 23:05:00,
2013-03-05 18:10:00,55.8,47.2,28.58,WSW,248,1.2,1.2,73,0.09,RA,SCT,0.09,WeatherDisplay:10.37,2013-03-05 23:10:00,
2013-03-05 18:15:00,56.1,48.7,28.58,WSW,248,3.5,3.5,76,0.09,CLR,SCT,0.09,WeatherDisplay:10.37,2013-03-05 23:15:00,
2013-03-05 18:20:00,56.1,49.0,28.58,WSW,248,4.6,4.6,77,0.09,CLR,SCT,0.09,WeatherDisplay:10.37,2013-03-05 23:20:00,
2013-03-05 18:25:00,55.0,49.0,28.64,WSW,248,5.8,5.8,80,0.14,RA,SCT,0.19,WeatherDisplay:10.37,2013-03-05 23:25:00,
2013-03-05 18:30:00,54.0,46.6,28.64,WSW,248,3.5,3.5,76,0.19,RA,SCT,0.23,WeatherDisplay:10.37,2013-03-05 23:30:00,
2013-03-05 18:35:00,53.1,45.0,28.64,SSW,202,2.3,2.3,74,0.19,RA,SCT,0.23,WeatherDisplay:10.37,2013-03-05 23:35:00,
2013-03-05 18:40:00,52.5,43.8,28.64,SSW,202,1.2,0.0,72,0.19,CLR,SCT,0.23,WeatherDisplay:10.37,2013-03-05 23:40:00,
2013-03-05 18:45:00,52.0,42.9,28.64,SSW,202,1.2,1.2,71,0.14,CLR,SCT,0.23,WeatherDisplay:10.37,2013-03-05 23:45:00,
2013-03-05 18:50:00,51.4,42.3,28.64,SW,225,1.4,1.4,71,0.14,CLR,SCT,0.23,WeatherDisplay:10.37,2013-03-05 23:50:00,
2013-03-05 18:55:00,50.9,41.8,28.64,South,180,0.0,0.0,71,0.14,CLR,SCT,0.23,WeatherDisplay:10.37,2013-03-05 23:55:00,
2013-03-05 19:00:00,50.4,41.3,28.64,South,180,0.0,0.0,71,0.14,CLR,SCT,0.23,WeatherDisplay:10.37,2013-03-06 00:00:00,
2013-03-05 19:05:00,50.0,41.0,28.64,South,180,0.0,0.0,71,0.15,CLR,SCT,0.23,WeatherDisplay:10.37,2013-03-06 00:05:00,
2013-03-05 19:10:00,49.6,40.6,28.64,South,180,0.0,0.0,71,0.15,CLR,SCT,0.23,WeatherDisplay:10.37,2013-03-06 00:10:00,
2013-03-05 19:15:00,49.3,40.3,28.64,South,180,0.0,0.0,71,0.15,CLR,SCT,0.23,WeatherDisplay:10.37,2013-03-06 00:15:00,
2013-03-05 19:20:00,48.9,40.3,28.64,South,180,0.0,0.0,72,0.15,CLR,SCT,0.23,WeatherDisplay:10.37,2013-03-06 00:20:00,
2013-03-05 19:25:00,48.7,40.1,28.61,South,180,0.0,0.0,72,0.04,CLR,SCT,0.23,WeatherDisplay:10.37,2013-03-06 00:25:00,
2013-03-05 19:30:00,48.6,39.9,28.61,South,180,0.0,0.0,72,0.00,CLR,SCT,0.23,WeatherDisplay:10.37,2013-03-06 00:30:00,
2013-03-05 19:35:00,48.2,39.6,28.61,South,180,0.0,0.0,72,0.00,CLR,SCT,0.23,WeatherDisplay:10.37,2013-03-06 00:35:00,
2013-03-05 19:40:00,48.0,39.8,28.64,South,180,0.0,0.0,73,0.00,CLR,SCT,0.23,WeatherDisplay:10.37,2013-03-06 00:40:00,
2013-03-05 19:45:00,47.8,39.6,28.64,South,180,0.0,0.0,73,0.00,CLR,SCT,0.23,WeatherDisplay:10.37,2013-03-06 00:45:00,
2013-03-05 19:50:00,47.7,40.1,28.64,South,180,0.0,0.0,75,0.00,CLR,SCT,0.23,WeatherDisplay:10.37,2013-03-06 00:50:00,
2013-03-05 19:55:00,47.7,40.1,28.61,SSE,158,0.0,0.0,75,0.00,CLR,SCT,0.23,WeatherDisplay:10.37,2013-03-06 00:55:00,
2013-03-05 20:00:00,47.7,40.1,28.61,SSE,158,0.0,0.0,75,0.00,CLR,SCT,0.23,WeatherDisplay:10.37,2013-03-06 01:00:00,
2013-03-05 20:05:00,47.5,39.9,28.61,ESE,112,0.0,0.0,75,0.00,CLR,SCT,0.23,WeatherDisplay:10.37,2013-03-06 01:05:00,
2013-03-05 20:10:00,47.3,39.8,28.61,ENE,68,0.0,0.0,75,0.00,CLR,SCT,0.23,WeatherDisplay:10.37,2013-03-06 01:10:00,
2013-03-05 20:15:00,47.3,40.1,28.61,SSE,158,1.2,0.0,76,0.00,CLR,SCT,0.23,WeatherDisplay:10.37,2013-03-06 01:15:00,
2013-03-05 20:20:00,47.8,40.6,28.61,SW,225,2.0,2.0,76,0.00,CLR,SCT,0.23,WeatherDisplay:10.37,2013-03-06 01:20:00,
2013-03-05 20:25:00,48.2,41.0,28.61,WSW,248,2.3,2.3,76,0.00,CLR,SCT,0.23,WeatherDisplay:10.37,2013-03-06 01:25:00,
2013-03-05 20:30:00,48.6,41.7,28.61,South,180,3.5,0.0,77,0.00,CLR,SCT,0.23,WeatherDisplay:10.37,2013-03-06 01:30:00,
2013-03-05 20:35:00,48.9,42.7,28.61,SSW,202,2.3,2.3,79,0.00,CLR,SCT,0.23,WeatherDisplay:10.37,2013-03-06 01:35:00,
2013-03-05 20:40:00,48.9,42.7,28.61,SW,225,2.3,2.3,79,0.00,CLR,SCT,0.23,WeatherDisplay:10.37,2013-03-06 01:40:00,
2013-03-05 20:45:00,49.1,43.2,28.61,South,180,1.2,1.2,80,0.00,CLR,SCT,0.23,WeatherDisplay:10.37,2013-03-06 01:45:00,
2013-03-05 20:50:00,49.3,43.7,28.61,South,180,2.3,2.3,81,0.00,CLR,SCT,0.23,WeatherDisplay:10.37,2013-03-06 01:50:00,
2013-03-05 20:55:00,49.3,43.7,28.64,WSW,248,3.1,3.1,81,0.00,CLR,SCT,0.23,WeatherDisplay:10.37,2013-03-06 01:55:00,
2013-03-05 21:00:00,49.5,44.5,28.64,SSE,158,2.3,2.3,83,0.00,CLR,SCT,0.23,WeatherDisplay:10.37,2013-03-06 02:00:00,
2013-03-05 21:05:00,49.3,44.0,28.64,ESE,112,2.0,2.0,82,0.00,CLR,SCT,0.23,WeatherDisplay:10.37,2013-03-06 02:05:00,
2013-03-05 21:10:00,49.1,43.5,28.64,WSW,248,2.3,2.4,81,0.00,CLR,SCT,0.23,WeatherDisplay:10.37,2013-03-06 02:10:00,
2013-03-05 21:15:00,49.1,42.9,28.64,South,180,2.3,2.3,79,0.00,CLR,SCT,0.23,WeatherDisplay:10.37,2013-03-06 02:15:00,
2013-03-05 21:20:00,48.9,42.0,28.64,West,270,2.3,2.3,77,0.00,CLR,SCT,0.23,WeatherDisplay:10.37,2013-03-06 02:20:00,
2013-03-05 21:25:00,48.7,41.2,28.64,South,180,3.5,3.5,75,0.00,CLR,SCT,0.23,WeatherDisplay:10.37,2013-03-06 02:25:00,
2013-03-05 21:30:00,48.7,41.2,28.64,West,270,2.3,0.0,75,0.00,CLR,SCT,0.23,WeatherDisplay:10.37,2013-03-06 02:30:00,
2013-03-05 21:35:00,48.2,39.2,28.64,South,180,2.3,2.3,71,0.00,CLR,SCT,0.23,WeatherDisplay:10.37,2013-03-06 02:35:00,
2013-03-05 21:40:00,48.2,38.5,28.67,NNW,338,3.5,3.5,69,0.00,CLR,SCT,0.23,WeatherDisplay:10.37,2013-03-06 02:40:00,
2013-03-05 21:45:00,48.2,38.5,28.67,SSW,202,3.5,3.5,69,0.00,CLR,SCT,0.23,WeatherDisplay:10.37,2013-03-06 02:45:00,
2013-03-05 21:50:00,48.0,35.2,28.67,WSW,248,3.5,3.5,61,0.00,CLR,SCT,0.23,WeatherDisplay:10.37,2013-03-06 02:50:00,
2013-03-05 21:55:00,47.8,33.3,28.67,South,180,3.5,3.5,57,0.00,CLR,SCT,0.23,WeatherDisplay:10.37,2013-03-06 02:55:00,
2013-03-05 22:00:00,47.8,33.3,28.67,SSW,202,2.9,2.9,57,0.00,CLR,SCT,0.23,WeatherDisplay:10.37,2013-03-06 03:00:00,
2013-03-05 22:05:00,47.8,33.3,28.67,SW,225,4.6,4.6,57,0.00,CLR,SCT,0.23,WeatherDisplay:10.37,2013-03-06 03:05:00,
2013-03-05 22:10:00,47.5,26.1,28.70,SW,225,3.5,3.5,43,0.00,CLR,SCT,0.23,WeatherDisplay:10.37,2013-03-06 03:10:00,
2013-03-05 22:15:00,47.5,24.3,28.70,SW,225,4.6,4.6,40,0.00,CLR,SCT,0.23,WeatherDisplay:10.37,2013-03-06 03:15:00,
2013-03-05 22:20:00,47.3,24.2,28.70,WNW,292,5.8,5.8,40,0.00,CLR,SCT,0.23,WeatherDisplay:10.37,2013-03-06 03:20:00,
2013-03-05 22:25:00,47.3,24.2,28.64,WNW,292,5.8,5.8,40,0.00,CLR,SCT,0.23,WeatherDisplay:10.37,2013-03-06 03:25:00,
2013-03-05 22:30:00,46.6,22.9,28.64,WSW,248,3.8,3.8,39,0.00,CLR,SCT,0.23,WeatherDisplay:10.37,2013-03-06 03:30:00,
2013-03-05 22:35:00,46.4,22.8,28.64,West,270,2.4,2.4,39,0.00,CLR,SCT,0.23,WeatherDisplay:10.37,2013-03-06 03:35:00,
2013-03-05 22:40:00,45.7,22.7,28.67,WSW,248,3.8,3.8,40,0.00,CLR,SCT,0.23,WeatherDisplay:10.37,2013-03-06 03:40:00,
2013-03-05 22:45:00,45.3,22.4,28.67,SE,135,4.9,4.9,40,0.00,CLR,SCT,0.23,WeatherDisplay:10.37,2013-03-06 03:45:00,
2013-03-05 22:50:00,45.1,21.0,28.67,West,270,5.8,5.8,38,0.00,CLR,SCT,0.23,WeatherDisplay:10.37,2013-03-06 03:50:00,
2013-03-05 22:55:00,45.1,21.0,28.67,West,270,6.0,6.0,38,0.00,CLR,SCT,0.23,WeatherDisplay:10.37,2013-03-06 03:55:00,
2013-03-05 23:00:00,44.1,20.0,28.67,West,270,5.8,5.8,38,0.00,CLR,SCT,0.23,WeatherDisplay:10.37,2013-03-06 04:00:00,
2013-03-05 23:05:00,43.5,19.6,28.67,South,180,5.8,5.8,38,0.00,CLR,SCT,0.23,WeatherDisplay:10.37,2013-03-06 04:05:00,
2013-03-05 23:10:00,43.2,18.0,28.70,WSW,248,5.8,5.8,36,0.00,CLR,SCT,0.23,WeatherDisplay:10.37,2013-03-06 04:10:00,
2013-03-05 23:15:00,42.6,18.1,28.70,West,270,5.8,5.8,37,0.00,CLR,SCT,0.23,WeatherDisplay:10.37,2013-03-06 04:15:00,
2013-03-05 23:20:00,42.3,16.5,28.70,WNW,292,6.9,6.9,35,0.00,CLR,SCT,0.23,WeatherDisplay:10.37,2013-03-06 04:20:00,
2013-03-05 23:25:00,42.1,17.0,28.70,SW,225,5.8,5.8,36,0.00,CLR,SCT,0.23,WeatherDisplay:10.37,2013-03-06 04:25:00,
2013-03-05 23:30:00,41.7,16.7,28.70,West,270,4.6,4.6,36,0.00,CLR,SCT,0.23,WeatherDisplay:10.37,2013-03-06 04:30:00,
2013-03-05 23:35:00,41.5,16.5,28.70,SW,225,4.6,4.6,36,0.00,CLR,SCT,0.23,WeatherDisplay:10.37,2013-03-06 04:35:00,
2013-03-05 23:40:00,41.4,15.7,28.70,West,270,5.8,5.8,35,0.00,CLR,SCT,0.23,WeatherDisplay:10.37,2013-03-06 04:40:00,
2013-03-05 23:45:00,41.0,15.4,28.70,South,180,5.8,5.8,35,0.00,CLR,SCT,0.23,WeatherDisplay:10.37,2013-03-06 04:45:00,
2013-03-05 23:50:00,40.8,15.9,28.70,WSW,248,4.6,4.6,36,0.00,CLR,SCT,0.23,WeatherDisplay:10.37,2013-03-06 04:50:00,
2013-03-05 23:55:00,40.6,15.1,28.70,West,270,6.9,6.9,35,0.00,CLR,SCT,0.23,WeatherDisplay:10.37,2013-03-06 04:55:00,